Wetbulb
61.29 61.49 61.34 61.40 61.27 62.23 62.92 63.05 63.38 63.32 62.95 62.49 61.63 60.40 60.23 60.02 59.50 57.02 52.81 56.58 57.98 62.65 59.02 55.02 54.54 53.51 50.78 48.56 49.50 48.00 40.18 38.67 40.13 39.80 42.06 43.98 43.58 44.29 46.72 48.47 51.09 54.07 55.35 58.44 60.67
60.90 60.88 60.80 61.25 61.07 61.77 61.79 62.73 62.83 63.10 62.61 62.07 61.79 61.04 60.31 60.03 55.07 52.86 60.59 62.39 63.08 61.90 52.40 53.68 48.84 50.46 47.14 46.87 47.20 44.12 39.30 41.27 44.53 42.56 43.80 44.46 44.63 44.99 46.26 46.13 51.22 53.78 57.30 60.76 59.70
60.23 60.24 60.49 60.84 60.75 61.29 61.35 61.86 62.31 62.63 62.68 61.87 61.57 61.11 60.68 58.48 51.25 51.29 62.30 63.70 62.95 62.08 54.74 53.05 51.29 48.99 45.77 46.27 45.14 44.13 41.28 44.09 44.33 44.15 45.65 44.99 43.69 43.58 45.43 42.04 52.21 53.90 57.03 58.98 58.56
59.82 59.65 59.89 60.02 60.56 60.99 61.37 61.58 62.06 61.86 61.96 61.39 61.19 60.85 60.37 56.67 44.33 56.24 62.60 63.58 63.58 61.32 54.51 52.49 49.94 45.72 44.45 43.53 45.43 41.00 44.79 44.42 46.38 45.77 45.92 44.55 45.31 42.94 42.96 43.51 52.62 57.76 58.78 58.66 57.86
59.39 59.04 59.30 59.61 60.11 60.66 61.13 61.36 61.33 61.22 60.85 60.74 60.35 60.09 56.03 50.53 50.20 55.55 62.48 62.89 60.92 59.07 52.08 50.02 49.82 45.91 42.52 43.86 44.52 42.29 42.06 44.37 44.52 46.11 45.39 45.76 43.36 43.27 42.42 42.49 56.86 58.05 58.31 57.67 58.17
58.86 58.61 58.77 59.15 59.82 60.36 60.96 61.48 61.26 60.74 60.59 60.31 60.08 59.18 51.03 45.85 55.80 56.32 60.59 60.12 57.95 55.97 54.15 51.14 49.03 49.30 45.13 44.29 43.26 44.01 43.36 42.64 43.47 43.41 43.93 43.55 42.24 43.11 42.68 47.43 55.35 57.28 57.01 57.04 56.89
58.73 58.18 58.39 58.72 59.33 59.76 60.36 61.11 60.40 60.27 60.23 60.16 59.62 54.21 46.97 47.94 52.95 58.73 60.10 58.53 57.61 56.38 52.99 53.28 50.52 48.87 47.14 43.74 47.19 42.59 39.15 39.55 40.60 42.31 41.70 43.41 40.48 40.08 42.47 50.24 54.15 54.91 55.46 56.44 57.05
58.42 57.78 57.85 58.27 58.81 59.47 59.75 60.23 60.03 60.04 59.68 59.81 59.34 49.96 42.50 52.44 54.27 57.76 58.88 58.95 58.61 58.29 55.46 52.66 50.94 49.14 45.34 46.36 43.48 40.39 37.54 34.26 38.93 41.51 40.69 40.46 37.19 40.79 42.14 45.99 49.43 51.48 51.93 54.95 56.37
57.75 57.22 57.67 58.03 58.17 58.63 59.25 59.51 59.60 60.20 60.40 60.06 51.58 46.22 41.12 53.26 49.32 52.57 57.92 56.79 56.30 55.57 55.61 53.73 49.17 44.46 43.50 39.66 36.33 34.70 31.33 32.48 36.00 41.24 39.26 38.86 36.53 40.53 40.87 42.24 42.25 43.45 46.10 49.97 53.47
57.42 57.23 57.54 57.92 58.00 58.04 58.83 59.36 59.64 59.51 58.23 55.40 52.85 41.64 44.42 43.86 48.15 50.39 53.74 55.98 50.75 51.43 47.44 47.25 43.49 39.39 38.15 35.91 32.29 30.86 31.57 32.98 32.99 38.49 37.91 36.41 36.54 38.47 40.72 40.01 39.95 40.07 40.21 43.60 48.29
57.23 57.18 57.42 57.76 57.89 58.61 57.89 55.74 50.19 49.02 49.19 42.92 44.11 41.96 43.06 47.18 50.12 48.12 52.55 50.08 49.72 47.32 39.71 41.58 36.77 35.19 38.24 36.83 37.63 37.27 35.71 34.76 34.25 37.95 37.31 36.82 36.95 38.78 40.06 38.82 37.76 38.05 38.45 41.78 45.90
57.32 57.18 57.49 57.75 58.04 58.14 55.67 48.56 46.81 48.94 41.26 46.26 46.45 45.02 45.54 46.12 42.17 46.39 50.93 44.05 44.09 41.63 41.05 37.35 34.28 39.43 40.59 40.23 38.86 36.86 35.70 33.64 34.88 37.19 36.41 35.38 36.90 37.37 38.83 39.30 39.32 38.87 38.09 41.37 40.04
56.93 56.80 56.96 57.43 57.47 55.18 51.32 47.23 51.63 49.59 38.71 42.06 45.68 43.02 44.01 45.38 40.97 42.39 47.33 43.80 41.78 41.24 39.37 35.01 37.43 41.29 40.18 37.98 36.86 34.26 33.66 32.43 34.65 34.30 33.93 32.88 33.47 35.76 38.56 38.68 39.41 40.09 39.66 39.87 40.28
56.82 56.67 56.64 56.94 53.31 52.50 48.07 50.08 52.59 46.15 31.58 35.54 39.34 42.31 44.20 44.03 39.18 45.50 47.01 44.70 41.32 37.41 40.55 37.78 41.27 39.48 38.34 37.83 37.61 31.99 37.02 36.46 34.85 32.15 28.77 32.69 27.27 30.38 35.15 37.44 38.70 39.44 38.82 39.92 40.47
56.59 56.45 56.52 56.03 52.09 48.48 49.64 50.93 51.45 43.93 20.28 36.15 38.04 45.76 44.04 40.41 40.73 41.28 45.18 42.02 38.50 38.12 38.82 36.28 38.05 37.16 36.59 38.23 38.86 35.50 38.59 36.62 34.21 31.55 30.45 28.36 27.24 29.82 31.66 32.80 37.05 38.10 38.54 40.45 40.96
55.61 56.05 56.09 53.55 52.78 51.83 52.04 51.12 46.54 31.09 18.78 32.80 37.79 37.99 37.44 38.44 38.73 40.76 40.82 41.08 43.83 39.67 39.36 39.16 40.34 40.41 39.72 38.74 39.16 39.34 37.57 35.19 33.50 31.19 24.99 29.08 28.80 28.00 29.97 35.07 38.68 36.63 38.91 39.34 40.77
52.80 55.79 54.69 54.05 49.03 52.12 52.25 46.74 29.50 23.09 34.29 30.84 32.24 36.45 35.77 34.40 35.65 36.67 37.07 34.57 32.96 30.71 31.77 35.08 35.61 37.36 40.99 36.92 37.92 37.90 34.64 25.91 24.87 24.80 23.66 26.44 25.26 31.49 32.87 35.83 37.15 39.60 37.99 38.71 40.37
49.54 55.63 53.91 52.68 53.87 52.32 48.99 35.86 18.84 28.06 30.36 35.10 35.02 36.20 32.85 36.00 34.13 34.98 35.20 33.43 35.28 34.85 31.70 29.35 27.27 34.96 38.69 37.94 34.29 33.65 35.00 25.05 19.90 19.21 22.00 26.01 25.00 31.48 34.80 37.04 38.01 39.23 39.59 39.25 39.30
48.95 53.70 51.08 50.92 53.17 51.81 43.20 29.25 26.63 30.82 35.31 33.26 34.39 31.71 29.98 34.54 34.04 32.72 33.46 34.65 36.10 35.01 31.51 30.94 30.04 35.95 36.95 38.38 38.51 34.43 31.06 33.49 25.95 16.96 22.43 23.92 27.06 34.19 35.66 35.52 36.75 37.44 38.79 38.55 38.88
43.38 49.79 47.85 52.32 53.08 49.29 38.38 30.55 31.69 36.49 37.13 36.50 28.60 31.54 26.91 32.18 30.65 30.36 31.74 36.65 35.61 37.46 37.74 34.45 28.76 34.66 35.81 37.68 37.29 35.70 36.83 29.75 26.62 19.14 16.59 21.98 23.01 27.75 31.58 35.87 36.06 36.72 38.04 38.35 39.31
41.14 44.41 43.67 51.11 51.84 43.85 33.15 32.19 35.09 38.44 39.24 34.65 31.21 30.39 30.47 31.49 30.41 30.11 31.40 33.45 38.95 36.09 37.14 35.80 33.56 30.74 34.97 33.40 32.94 32.86 31.23 30.41 30.60 27.27 22.14 17.62 24.02 31.08 35.07 38.09 36.75 37.84 38.90 39.10 39.39
36.67 33.18 43.15 50.01 40.09 39.84 34.51 34.62 39.58 38.61 39.22 37.58 36.20 33.88 32.30 33.69 31.20 31.36 30.71 33.79 41.19 37.68 34.28 36.57 32.94 27.36 30.54 34.57 35.52 33.50 33.56 33.38 28.48 24.74 23.98 24.04 25.75 33.94 33.89 36.00 38.50 37.88 39.14 39.36 40.07
32.66 32.47 42.98 47.68 33.17 34.85 37.86 36.96 38.46 38.68 37.95 37.49 35.20 36.34 35.76 34.32 31.10 33.24 34.17 38.30 39.35 38.48 36.29 37.29 31.36 25.07 28.11 31.76 33.57 32.49 33.54 33.89 31.35 28.86 24.81 24.47 26.86 34.43 33.10 35.05 38.70 38.67 39.14 39.70 38.92
32.47 31.54 35.64 42.22 37.32 37.29 35.29 34.58 34.30 40.64 39.40 39.87 37.80 37.74 35.09 33.58 35.10 32.21 33.43 38.26 38.91 39.99 41.33 40.83 33.23 30.32 26.60 29.99 32.56 29.49 31.77 32.80 33.58 26.20 25.25 25.47 28.77 31.83 33.25 35.04 37.24 39.34 39.63 39.39 39.48
32.81 30.02 30.95 31.83 34.07 36.96 37.13 36.03 33.61 34.75 38.88 40.07 36.73 36.20 35.17 31.66 32.91 32.73 35.14 36.03 38.53 40.66 38.29 37.84 29.30 31.54 31.97 33.32 34.31 32.54 32.74 33.37 32.34 34.95 30.53 33.42 29.41 33.39 34.71 35.88 38.32 39.86 39.58 39.04 39.04
31.89 31.49 32.23 31.90 34.04 36.40 36.61 33.96 33.68 35.85 37.21 35.66 35.69 37.16 37.24 33.54 34.76 32.20 35.05 33.82 34.86 36.98 36.39 35.87 26.11 30.50 28.64 33.24 32.39 30.09 32.53 33.00 34.19 33.65 31.24 29.52 29.25 35.61 35.34 37.40 37.73 39.19 39.82 39.34 39.60
37.37 37.32 33.49 32.05 34.57 34.83 33.72 34.23 34.96 37.85 38.02 39.74 39.29 38.13 37.15 38.41 39.44 39.48 39.85 39.32 38.41 36.93 37.24 35.07 29.88 25.56 20.62 28.86 29.56 26.82 31.09 32.16 33.67 35.79 35.44 31.26 36.92 35.15 34.77 36.91 38.50 38.93 40.43 40.53 40.96
MSLP
1007.10 1007.78 1008.50 1009.22 1009.79 1010.39 1010.85 1011.43 1011.91 1012.61 1013.37 1014.31 1014.87 1015.43 1015.95 1016.37 1016.49 1016.76 1016.64 1016.33 1015.95 1015.78 1015.51 1015.99 1016.22 1016.76 1016.37 1016.64 1016.10 1016.12 1016.66 1017.10 1016.88 1016.84 1016.35 1016.08 1016.22 1016.55 1016.73 1017.34 1017.94 1018.24 1018.65 1018.92 1020.04
1006.43 1007.18 1007.98 1008.77 1009.35 1009.75 1010.32 1011.05 1011.59 1012.19 1013.24 1013.90 1014.87 1015.52 1015.98 1016.31 1016.69 1016.53 1016.11 1016.17 1015.96 1015.84 1015.81 1016.21 1017.35 1017.65 1017.73 1016.93 1016.32 1016.19 1016.56 1016.35 1015.86 1015.72 1015.78 1016.00 1016.05 1016.53 1017.04 1017.77 1018.34 1018.41 1018.56 1019.08 1020.06
1005.82 1006.59 1007.39 1008.23 1008.78 1009.31 1010.05 1010.52 1011.23 1011.96 1012.94 1013.79 1014.62 1015.47 1015.83 1016.39 1017.02 1015.70 1015.52 1016.11 1016.39 1016.19 1016.10 1016.51 1017.55 1017.95 1018.35 1017.14 1016.49 1016.18 1016.04 1015.83 1015.40 1015.25 1015.60 1015.79 1016.28 1016.51 1017.03 1017.96 1017.98 1018.30 1018.94 1019.57 1020.32
1005.41 1006.18 1006.98 1007.63 1008.45 1009.01 1009.82 1010.55 1011.29 1011.98 1012.80 1013.72 1014.32 1015.25 1015.99 1016.15 1015.60 1014.22 1014.79 1015.62 1016.40 1016.64 1016.39 1016.83 1017.84 1018.12 1018.31 1017.19 1016.38 1016.38 1015.65 1015.34 1015.16 1014.95 1015.57 1015.66 1016.09 1016.70 1016.91 1017.02 1017.01 1017.81 1018.43 1019.48 1020.23
1004.96 1005.71 1006.59 1007.25 1008.02 1008.67 1009.59 1010.25 1011.31 1011.97 1012.84 1013.61 1014.45 1014.99 1015.98 1015.82 1014.71 1013.57 1014.33 1015.26 1016.14 1016.57 1016.41 1016.84 1017.75 1017.94 1018.04 1017.29 1016.70 1016.37 1015.93 1015.52 1015.20 1015.07 1015.45 1015.60 1016.13 1016.68 1017.08 1017.24 1017.48 1018.39 1019.04 1019.65 1020.16
1004.46 1005.20 1006.09 1006.64 1007.47 1008.29 1009.13 1010.02 1011.33 1012.24 1013.00 1013.62 1014.43 1014.92 1015.16 1015.07 1013.74 1013.54 1014.28 1015.18 1015.76 1016.40 1016.78 1017.00 1017.29 1017.62 1017.86 1017.71 1017.25 1016.19 1016.08 1015.90 1015.59 1015.56 1015.70 1015.80 1016.41 1016.57 1017.42 1017.79 1018.08 1018.72 1019.28 1019.51 1020.04
1004.20 1004.82 1005.57 1006.33 1007.11 1008.06 1008.89 1009.98 1011.28 1012.26 1013.03 1013.61 1014.20 1014.79 1014.64 1013.86 1013.19 1013.42 1014.09 1014.82 1015.47 1015.88 1016.51 1016.66 1016.94 1017.17 1018.24 1018.34 1017.18 1016.57 1016.55 1016.32 1016.13 1015.99 1015.86 1015.99 1016.91 1016.99 1017.42 1018.12 1018.54 1019.11 1019.39 1019.68 1019.83
1003.73 1004.46 1005.07 1006.17 1006.74 1007.73 1008.73 1009.84 1011.07 1012.37 1012.88 1013.62 1014.26 1014.69 1014.47 1013.48 1013.37 1013.91 1014.33 1015.26 1015.88 1016.12 1016.41 1016.73 1017.42 1017.60 1017.67 1018.36 1017.68 1017.16 1017.08 1017.07 1016.53 1016.43 1016.17 1016.18 1016.95 1017.27 1017.72 1018.27 1019.00 1019.37 1019.62 1019.76 1019.87
1003.09 1004.05 1005.05 1005.68 1006.60 1007.50 1008.59 1009.57 1011.29 1011.88 1012.80 1013.66 1014.81 1014.63 1014.22 1013.27 1013.47 1013.59 1014.03 1015.07 1016.04 1016.76 1017.07 1017.75 1017.63 1017.82 1017.75 1017.96 1017.77 1017.33 1017.30 1017.41 1016.92 1016.70 1016.50 1016.67 1017.12 1017.23 1017.79 1018.45 1019.19 1019.50 1019.63 1019.76 1019.87
1002.56 1003.59 1004.65 1005.53 1006.33 1007.59 1008.44 1009.40 1011.03 1011.54 1013.07 1014.24 1014.48 1014.95 1014.01 1013.18 1013.12 1013.41 1014.06 1015.11 1016.50 1017.25 1017.79 1017.69 1017.86 1017.57 1017.51 1016.88 1015.77 1016.80 1017.33 1017.35 1017.21 1017.07 1017.10 1017.13 1017.06 1017.31 1017.77 1018.39 1018.90 1019.34 1019.53 1019.82 1019.69
1001.98 1003.27 1004.47 1005.47 1006.21 1007.13 1008.12 1009.74 1011.84 1012.48 1012.52 1013.05 1013.36 1013.51 1013.01 1012.70 1012.89 1013.63 1014.36 1015.49 1017.05 1017.56 1017.02 1016.60 1016.78 1015.55 1016.26 1016.41 1016.14 1016.23 1016.93 1017.35 1017.19 1017.07 1017.37 1017.34 1017.22 1017.32 1017.66 1018.30 1018.80 1019.26 1019.58 1019.66 1019.63
1001.33 1002.82 1004.03 1005.10 1005.84 1006.76 1007.72 1008.62 1009.54 1009.48 1011.61 1012.67 1013.28 1013.35 1012.80 1012.44 1013.23 1013.79 1013.93 1015.34 1016.96 1017.33 1016.93 1017.09 1015.37 1016.05 1016.31 1016.25 1016.34 1016.29 1016.68 1017.51 1017.65 1017.53 1017.66 1017.81 1017.52 1017.63 1017.72 1017.91 1018.11 1018.58 1019.23 1019.36 1019.77
1001.22 1002.39 1003.45 1004.47 1006.01 1007.31 1007.61 1008.44 1008.89 1009.28 1011.30 1012.82 1013.18 1012.93 1012.26 1012.64 1013.24 1013.48 1013.92 1014.97 1016.54 1017.05 1016.44 1016.33 1015.69 1015.89 1015.97 1016.07 1016.46 1016.34 1016.55 1017.35 1017.53 1018.07 1018.09 1018.26 1018.31 1017.90 1017.53 1017.73 1018.03 1018.23 1018.72 1019.27 1019.64
1001.02 1002.28 1003.12 1004.19 1006.72 1006.75 1007.48 1008.09 1008.65 1008.96 1011.39 1012.97 1013.03 1012.23 1012.17 1012.42 1013.08 1013.13 1013.69 1014.69 1016.30 1017.08 1017.28 1016.77 1015.74 1015.71 1015.57 1015.63 1016.15 1016.19 1016.33 1016.95 1017.91 1018.49 1018.70 1018.55 1018.78 1018.06 1017.72 1017.71 1018.25 1018.54 1018.82 1019.26 1019.74
1001.09 1002.03 1002.45 1003.97 1004.83 1006.03 1006.87 1007.84 1008.98 1009.69 1011.40 1011.89 1012.30 1011.27 1011.98 1012.64 1012.19 1013.00 1013.17 1014.24 1015.20 1016.52 1017.32 1016.11 1015.42 1015.33 1014.95 1014.73 1015.34 1015.79 1016.32 1017.19 1018.03 1018.75 1018.87 1019.39 1019.54 1017.86 1018.00 1018.15 1018.35 1018.52 1019.10 1019.31 1020.03
1001.36 1001.68 1002.41 1004.11 1005.08 1005.86 1006.95 1008.18 1010.08 1011.12 1010.57 1011.15 1010.99 1011.43 1012.32 1012.15 1012.15 1012.83 1013.48 1013.53 1014.18 1016.11 1017.52 1016.67 1015.69 1015.19 1014.80 1015.23 1015.17 1015.73 1016.68 1018.01 1018.58 1019.46 1019.86 1019.07 1019.35 1017.92 1017.86 1017.03 1017.06 1018.31 1019.05 1019.40 1020.50
1001.45 1001.76 1002.39 1003.53 1003.74 1005.69 1006.96 1008.22 1009.91 1009.92 1009.29 1010.74 1011.02 1011.04 1011.58 1012.28 1012.70 1012.74 1013.39 1013.70 1013.41 1014.97 1016.12 1016.63 1016.01 1015.34 1015.17 1016.06 1015.80 1015.42 1016.60 1018.62 1019.74 1020.20 1019.63 1019.43 1019.45 1017.24 1016.46 1016.25 1016.38 1017.11 1018.41 1019.27 1020.55
1001.36 1001.53 1002.42 1003.21 1003.84 1005.26 1006.88 1007.87 1008.35 1007.92 1008.33 1009.31 1009.92 1011.03 1011.71 1012.22 1012.93 1013.18 1013.79 1013.91 1013.29 1013.30 1014.91 1015.09 1015.60 1015.12 1014.36 1014.50 1014.76 1015.24 1015.43 1016.97 1018.25 1019.98 1020.30 1020.04 1018.58 1016.39 1015.88 1015.87 1016.16 1016.96 1018.23 1019.45 1020.24
1001.96 1001.11 1002.34 1003.21 1003.78 1004.93 1006.15 1006.94 1006.22 1006.85 1007.84 1008.91 1010.36 1011.20 1011.87 1011.64 1011.89 1013.03 1012.92 1012.47 1012.32 1012.38 1012.91 1013.24 1014.16 1014.44 1014.36 1014.21 1014.33 1015.06 1015.15 1015.98 1018.17 1020.62 1020.30 1019.15 1017.95 1016.34 1015.94 1016.26 1016.69 1017.41 1018.62 1019.51 1020.02
1002.05 1001.59 1002.67 1003.04 1003.95 1005.25 1006.08 1005.68 1006.05 1006.15 1006.78 1007.82 1008.72 1009.57 1010.10 1010.57 1011.37 1011.55 1012.01 1011.48 1011.43 1011.51 1011.39 1011.97 1013.83 1014.75 1014.72 1014.49 1014.27 1014.02 1014.56 1016.16 1017.64 1019.51 1020.05 1019.10 1017.95 1016.30 1016.16 1016.16 1016.75 1017.64 1018.26 1019.24 1019.94
1002.57 1002.49 1003.64 1003.25 1004.33 1005.45 1004.34 1005.20 1005.35 1005.33 1005.58 1006.34 1007.15 1008.27 1009.05 1009.66 1010.44 1010.80 1010.63 1010.09 1010.52 1011.14 1011.28 1011.82 1012.83 1015.21 1014.90 1014.59 1014.37 1014.61 1014.57 1015.39 1016.43 1017.66 1018.08 1018.35 1016.57 1014.59 1014.23 1014.41 1015.46 1016.67 1017.64 1018.71 1020.00
1004.29 1003.65 1003.64 1003.29 1004.12 1004.70 1004.66 1004.74 1004.79 1005.28 1005.49 1005.48 1005.94 1006.73 1007.93 1009.09 1009.78 1010.28 1010.07 1009.27 1009.43 1010.36 1011.26 1011.82 1013.19 1014.87 1014.84 1014.55 1014.68 1014.48 1014.20 1014.58 1015.72 1017.05 1017.59 1017.13 1015.01 1013.65 1013.78 1014.38 1015.40 1016.68 1017.61 1018.61 1019.58
1004.63 1004.43 1003.23 1003.23 1003.22 1003.71 1004.66 1004.88 1004.81 1004.87 1005.26 1005.42 1005.65 1005.96 1006.85 1008.01 1009.28 1009.42 1009.54 1009.34 1009.23 1009.92 1010.20 1011.50 1013.18 1014.79 1015.34 1015.31 1015.10 1014.75 1014.10 1013.86 1014.65 1015.60 1016.35 1016.50 1014.43 1013.77 1013.84 1014.41 1015.19 1016.30 1017.35 1018.37 1019.47
1005.25 1005.42 1004.56 1003.55 1003.64 1003.44 1004.37 1004.95 1005.07 1004.85 1005.02 1004.91 1005.21 1005.43 1006.59 1007.69 1008.15 1009.12 1009.61 1009.93 1009.58 1009.79 1010.20 1010.86 1012.36 1013.28 1013.41 1013.04 1013.95 1014.54 1013.82 1013.61 1014.04 1015.31 1015.10 1014.53 1014.11 1013.73 1013.97 1014.32 1015.18 1016.06 1016.80 1017.82 1018.91
1005.35 1005.24 1005.00 1004.14 1004.05 1003.67 1004.21 1004.52 1005.08 1004.85 1004.79 1004.59 1005.21 1005.23 1006.00 1007.29 1008.20 1008.74 1009.39 1010.21 1010.35 1010.05 1010.78 1011.25 1012.49 1013.43 1013.36 1013.05 1012.96 1012.67 1012.65 1013.00 1013.44 1012.94 1013.79 1012.58 1013.30 1012.84 1013.06 1013.66 1014.21 1015.31 1016.55 1017.56 1018.32
1005.64 1005.31 1004.75 1004.50 1003.68 1003.94 1004.35 1003.97 1004.28 1004.80 1004.75 1005.12 1005.19 1005.88 1006.06 1006.48 1006.90 1008.08 1008.57 1009.35 1009.78 1010.78 1010.88 1011.90 1013.12 1013.73 1014.38 1013.94 1013.28 1013.06 1012.75 1012.87 1012.84 1012.50 1012.30 1012.01 1012.08 1011.85 1012.12 1013.37 1014.31 1014.77 1015.77 1016.47 1017.10
1005.87 1005.75 1005.49 1004.93 1004.08 1004.07 1003.77 1003.76 1004.11 1004.97 1005.80 1005.46 1005.70 1006.43 1006.90 1007.00 1006.92 1007.14 1007.92 1008.77 1009.19 1009.72 1010.48 1012.12 1013.53 1014.56 1015.26 1014.98 1014.18 1013.78 1011.77 1011.82 1011.58 1011.15 1010.53 1011.10 1010.25 1011.59 1012.21 1012.59 1012.93 1013.76 1014.63 1014.84 1015.48
Wind_Speed
27 25 23 23 22 21 19 20 22 24 25 22 21 19 12 7 3 3 3 2 5 3 8 4 7 7 8 3 2 3 4 3 5 7 6 2 5 1 2 7 3 2 7 10 11
27 26 25 24 23 21 20 21 23 23 23 22 20 20 15 9 2 4 2 4 6 4 6 8 5 5 7 4 3 3 4 8 5 5 7 5 6 8 5 2 4 5 6 18 14
26 26 24 23 23 21 20 23 19 20 22 22 20 18 17 10 5 9 9 10 7 4 3 6 6 3 3 3 3 3 5 5 4 4 7 9 6 2 11 2 7 12 18 17 13
25 25 23 22 23 22 21 21 21 21 22 21 20 19 16 11 10 7 19 15 9 3 5 9 4 7 2 4 3 2 5 3 3 4 7 11 7 5 2 6 11 17 20 17 14
25 24 23 23 23 23 24 24 21 23 22 23 22 21 9 6 6 3 22 18 8 4 5 8 9 4 3 2 2 2 3 1 2 5 6 7 6 6 5 1 11 12 14 15 14
22 24 23 22 23 22 26 27 23 22 23 23 22 19 5 12 6 7 18 18 17 9 5 7 8 4 5 4 4 3 5 2 2 4 3 6 4 5 5 4 12 16 14 14 13
22 23 21 23 22 22 26 27 25 22 22 24 22 3 2 11 2 8 19 17 20 16 7 4 3 7 10 7 13 3 4 2 2 3 3 7 2 5 5 8 14 11 11 11 13
26 23 23 22 23 22 26 27 25 24 23 21 18 2 5 4 4 10 10 12 13 12 6 6 2 6 5 7 6 6 5 4 3 4 0 4 7 4 7 11 11 10 8 9 12
25 25 23 23 21 22 26 29 24 26 21 18 4 3 5 3 6 9 12 13 14 2 3 6 3 4 5 8 2 1 5 4 1 5 3 3 5 5 7 8 9 9 9 9 9
25 26 24 23 23 24 26 25 21 24 17 6 3 3 5 6 4 8 9 18 6 10 10 12 6 6 4 8 19 7 6 3 5 6 2 4 4 4 7 8 11 9 8 9 9
25 27 26 25 27 28 28 17 11 6 8 7 9 4 4 3 5 5 6 12 6 2 11 7 7 22 18 3 6 8 6 7 3 3 5 8 4 9 7 5 7 8 9 8 9
25 29 29 27 29 32 19 10 6 10 10 1 4 6 2 4 6 15 15 9 6 15 5 5 18 8 8 9 4 6 9 5 0 1 3 4 9 3 5 6 8 11 9 10 6
26 27 30 29 34 20 14 8 10 15 7 2 5 4 6 5 4 14 12 10 11 11 15 5 3 7 8 6 9 4 7 5 5 3 3 4 7 4 5 3 3 4 5 5 10
28 27 31 34 21 17 12 9 18 2 6 6 8 7 3 6 4 7 8 12 5 13 15 8 3 10 7 13 9 6 7 7 8 6 5 4 6 6 7 8 6 7 8 9 9
19 27 34 29 15 14 16 10 16 4 7 11 6 2 7 6 11 8 5 5 18 13 6 11 11 9 12 13 9 6 8 10 7 5 5 2 1 8 2 6 9 12 9 7 7
27 22 37 10 10 16 13 11 4 4 8 9 9 11 8 4 3 7 5 1 9 14 11 10 5 8 9 1 8 8 8 6 5 4 3 7 8 7 7 12 14 4 10 9 8
5 28 26 11 16 14 12 12 6 6 4 8 8 8 11 6 5 7 17 8 9 13 19 7 6 3 11 3 0 6 9 2 0 2 7 3 4 9 6 8 9 18 11 10 9
12 31 18 5 17 17 6 6 5 4 8 5 8 15 10 11 3 7 15 12 9 6 9 8 7 8 6 10 9 8 12 7 8 6 3 2 8 8 5 4 6 8 11 11 9
6 11 6 3 18 10 12 15 10 11 9 10 9 16 6 8 9 8 16 21 10 10 8 14 6 0 2 2 6 7 8 6 9 4 4 5 6 9 0 1 4 9 13 12 10
2 14 6 11 17 10 11 9 6 7 10 19 8 7 10 21 8 10 17 16 9 11 4 6 5 1 1 1 0 5 8 4 2 6 4 5 4 6 6 11 8 12 15 11 9
3 8 2 11 8 10 19 12 4 5 12 8 7 8 8 14 8 11 17 4 16 8 4 4 5 2 3 5 8 2 3 3 6 5 7 2 8 10 17 16 17 14 13 13 12
3 3 1 10 10 9 18 9 4 6 6 5 6 6 11 15 5 9 14 7 20 9 9 2 6 4 6 1 1 2 7 8 6 7 1 3 8 2 6 7 9 10 12 11 13
3 3 3 11 13 16 13 7 4 6 6 7 5 5 5 12 6 5 7 6 11 14 13 8 2 4 4 3 1 6 5 5 5 4 9 7 7 1 2 6 10 15 13 13 12
2 4 2 6 1 19 15 20 5 4 4 4 6 6 8 7 1 10 4 2 2 13 6 10 4 7 10 8 9 6 7 6 8 4 4 8 6 5 5 8 9 12 14 14 15
2 2 1 8 8 20 15 24 13 8 2 4 3 7 10 6 4 7 5 4 4 10 5 6 6 5 2 4 11 6 9 15 14 21 14 21 11 10 9 13 17 12 12 15 16
1 1 2 2 3 22 14 27 23 3 7 3 8 5 4 8 8 9 9 4 8 1 7 2 2 3 1 6 0 4 10 13 15 12 10 2 6 8 4 8 10 14 16 17 19
1 0 1 4 5 16 11 17 21 9 7 6 9 6 6 4 5 5 4 8 8 10 15 7 5 3 5 2 3 4 14 15 16 17 18 16 22 7 5 10 15 15 18 22 21
Wind_Direction
193 190 187 186 187 186 178 183 180 171 173 174 173 174 164 138 47 75 218 257 143 26 93 80 51 360 344 295 283 109 76 176 209 151 225 234 122 105 47 107 84 48 154 160 147
191 187 187 185 186 183 180 186 175 163 167 167 171 175 171 132 64 263 200 259 129 28 92 122 117 50 331 287 296 116 141 206 199 185 185 172 136 151 97 97 28 62 79 141 135
190 184 185 183 183 179 178 181 167 158 163 166 167 169 161 133 126 239 195 207 202 97 85 97 99 84 214 276 259 218 192 204 221 185 184 150 137 133 125 228 202 153 145 158 151
191 181 180 182 181 172 174 172 157 150 151 148 146 145 148 173 177 195 183 209 173 151 128 111 109 133 239 238 248 232 238 202 225 121 144 156 128 108 187 222 160 156 156 161 167
187 174 176 181 175 168 169 155 158 151 151 147 151 146 151 195 244 216 173 186 145 129 145 130 175 145 177 263 259 210 290 130 159 126 155 119 136 157 205 306 131 136 155 169 178
181 171 174 175 168 169 166 155 151 152 153 156 158 159 152 195 223 150 169 169 182 167 171 155 176 177 29 308 266 224 228 313 263 130 135 127 149 118 246 127 135 155 172 172 180
185 172 168 169 168 166 166 153 153 151 157 158 159 154 100 205 198 156 164 173 179 192 158 191 73 121 148 326 268 156 130 33 276 216 137 130 74 195 178 152 154 169 180 179 188
180 174 165 169 168 163 164 154 155 163 158 158 163 92 218 234 141 132 146 167 181 191 179 42 159 187 141 203 276 144 86 145 247 194 175 105 223 213 168 146 174 180 186 189 203
177 167 167 167 168 158 159 152 162 157 155 145 138 127 253 102 149 152 155 169 160 160 86 227 148 225 207 202 187 146 173 186 225 213 130 147 211 207 167 166 187 199 190 199 212
174 165 163 162 154 153 143 133 147 144 139 142 107 69 272 200 156 135 116 124 105 146 202 204 193 185 230 183 195 157 138 152 179 217 179 172 237 180 180 171 195 206 204 204 203
173 165 162 159 152 145 126 124 141 155 151 171 169 225 163 152 103 110 132 93 75 148 187 179 172 205 204 143 156 141 137 171 218 203 144 205 218 207 194 186 207 218 214 211 204
181 163 158 159 148 143 142 157 146 124 113 225 196 301 178 164 117 160 139 117 138 181 200 164 215 180 154 181 189 141 160 186 68 60 157 163 233 234 202 224 198 194 210 199 168
158 168 159 153 146 145 153 148 136 128 112 136 181 199 159 118 150 181 132 115 148 183 202 182 260 171 162 175 192 200 167 174 161 140 60 108 305 212 234 216 180 200 190 170 180
171 175 157 140 148 155 161 146 156 78 99 178 193 239 175 151 154 161 148 142 118 195 216 264 191 184 189 198 187 202 194 167 147 129 190 154 257 247 216 199 201 202 182 177 176
179 172 150 152 134 166 154 133 166 46 139 165 180 157 164 174 138 211 183 110 157 160 200 205 225 197 198 203 166 196 142 161 159 146 122 207 136 261 134 213 221 211 205 185 186
179 173 150 135 136 155 137 121 134 86 216 175 151 170 138 177 159 130 147 120 147 146 205 252 295 187 193 285 186 142 97 50 66 101 248 197 167 256 188 204 207 176 203 179 172
251 171 160 152 159 145 145 150 109 177 185 167 173 166 151 143 117 168 177 189 160 155 181 169 208 213 155 201 252 163 144 127 94 187 217 158 156 239 228 234 207 201 187 165 168
345 167 160 166 145 150 146 133 126 163 176 117 132 136 167 140 144 165 173 200 237 147 148 159 199 186 176 192 181 192 173 154 175 187 206 122 228 245 223 280 237 187 161 155 157
342 167 143 175 151 150 161 182 190 173 150 128 96 151 165 193 133 148 190 200 199 198 168 176 181 209 184 155 173 190 187 153 98 19 73 213 282 301 197 106 148 148 157 172 161
13 153 134 154 152 152 175 178 148 177 122 148 146 182 170 178 149 176 177 201 195 189 209 182 130 50 121 203 28 187 156 106 12 136 221 261 263 234 233 224 182 177 179 171 156
44 169 193 151 171 166 192 188 170 175 147 149 148 150 161 177 162 182 183 233 187 187 182 126 113 157 108 208 169 146 203 76 119 147 173 178 254 214 205 206 191 187 172 164 164
63 138 220 151 166 187 189 158 189 155 233 179 120 115 162 169 140 172 187 186 186 152 155 113 103 144 194 261 320 277 208 173 170 221 289 158 264 177 226 205 167 170 168 166 166
118 352 337 188 175 185 160 201 189 141 186 170 131 148 145 166 146 165 174 205 185 174 164 175 126 96 49 7 262 225 207 172 106 75 198 171 254 21 319 165 175 169 171 166 160
94 157 340 209 324 171 166 191 177 188 169 129 124 110 115 157 192 185 125 146 153 196 148 120 143 169 189 208 133 209 210 188 183 171 183 224 221 246 215 185 175 180 175 167 168
14 71 330 180 197 172 172 184 183 169 166 140 76 150 149 136 120 149 141 124 32 150 130 148 188 181 257 208 190 202 203 194 198 216 195 235 201 225 213 195 193 179 164 172 178
95 14 14 25 181 160 186 192 185 158 136 173 135 141 125 147 180 172 131 170 169 267 126 63 204 133 349 339 243 185 197 188 212 226 251 172 249 211 212 123 165 186 179 184 191
160 139 41 357 169 166 188 178 191 138 13 137 142 119 100 145 117 144 100 126 156 166 169 123 127 92 252 285 76 314 206 195 220 217 216 222 236 157 186 194 191 185 189 196 195